JBU678 KJFK-KJAX

Flight info

Callsign JBU678
Flight time N/A
Altitude 32000
Route WAVEY EMJAY Q167 ZJAAY Q97 SAWED GUILD Q409 SESUE ESENT LUNNI2
Aircraft A320/M-SDE3FGHIRWY/LB1

Departure

Time 2026-05-09 18:14
Airport John F. Kennedy International Airport (KJFK)

Arrival

Time N/A
Airport Jacksonville International Airport (KJAX)
Time Latitude Longitude Altitude Speed Heading
2026-05-09 17:46 40.64623 -73.77353 25 ft 0 kts 190°
2026-05-09 17:59 40.64624 -73.77352 23 ft 1 kts 190°
2026-05-09 18:00 40.64648 -73.77347 23 ft 4 kts 188°
2026-05-09 18:00 40.64674 -73.77341 25 ft 4 kts 205°
2026-05-09 18:00 40.64689 -73.77322 26 ft 4 kts 249°
2026-05-09 18:00 40.64688 -73.77299 26 ft 4 kts 305°
2026-05-09 18:01 40.64674 -73.77271 24 ft 2 kts 302°
2026-05-09 18:01 40.64674 -73.77269 24 ft 0 kts 302°
2026-05-09 18:06 40.64678 -73.77279 24 ft 5 kts 302°
2026-05-09 18:07 40.64704 -73.77334 26 ft 9 kts 301°
2026-05-09 18:07 40.64740 -73.77374 23 ft 9 kts 356°
2026-05-09 18:07 40.64777 -73.77305 23 ft 13 kts 105°
2026-05-09 18:07 40.64728 -73.77192 22 ft 14 kts 121°
2026-05-09 18:08 40.64684 -73.77120 23 ft 11 kts 147°
2026-05-09 18:08 40.64599 -73.77089 22 ft 12 kts 172°
2026-05-09 18:08 40.64573 -73.77010 20 ft 8 kts 88°
2026-05-09 18:08 40.64580 -73.76937 19 ft 7 kts 63°
2026-05-09 18:09 40.64624 -73.76897 18 ft 11 kts 28°
2026-05-09 18:09 40.64705 -73.76834 18 ft 16 kts 31°
2026-05-09 18:09 40.64807 -73.76754 19 ft 13 kts 30°
2026-05-09 18:09 40.64882 -73.76696 22 ft 14 kts 31°
2026-05-09 18:10 40.64968 -73.76629 21 ft 12 kts 31°
2026-05-09 18:10 40.65025 -73.76585 21 ft 16 kts 31°
2026-05-09 18:10 40.65079 -73.76542 21 ft 5 kts 31°
2026-05-09 18:10 40.65102 -73.76490 22 ft 9 kts 92°
2026-05-09 18:11 40.65088 -73.76448 24 ft 3 kts 121°
2026-05-09 18:11 40.65068 -73.76405 23 ft 8 kts 121°
2026-05-09 18:11 40.65018 -73.76360 24 ft 8 kts 193°
2026-05-09 18:11 40.64997 -73.76374 22 ft 0 kts 211°
2026-05-09 18:13 40.64950 -73.76412 23 ft 31 kts 211°
2026-05-09 18:14 40.64571 -73.76709 20 ft 92 kts 211°
2026-05-09 18:14 40.63875 -73.77253 22 ft 138 kts 211°
2026-05-09 18:14 40.62948 -73.77980 153 ft 164 kts 211°
2026-05-09 18:14 40.61963 -73.78764 748 ft 166 kts 211°
2026-05-09 18:15 40.60971 -73.79551 1316 ft 172 kts 212°
2026-05-09 18:15 40.59864 -73.80385 1558 ft 195 kts 210°
2026-05-09 18:15 40.58467 -73.80778 1810 ft 224 kts 175°
2026-05-09 18:15 40.57042 -73.79837 2432 ft 239 kts 141°
2026-05-09 18:16 40.55820 -73.78308 3071 ft 249 kts 142°
2026-05-09 18:16 40.54497 -73.76708 3660 ft 263 kts 143°
2026-05-09 18:16 40.53142 -73.75083 4520 ft 267 kts 144°
2026-05-09 18:16 40.51760 -73.73425 4908 ft 268 kts 144°
2026-05-09 18:17 40.50385 -73.71770 5234 ft 268 kts 144°
2026-05-09 18:17 40.49012 -73.70115 5567 ft 268 kts 144°
2026-05-09 18:17 40.47636 -73.68455 5910 ft 269 kts 144°
2026-05-09 18:17 40.46255 -73.66790 6242 ft 270 kts 144°
2026-05-09 18:18 40.44870 -73.65118 6549 ft 271 kts 144°
2026-05-09 18:18 40.43489 -73.63449 6863 ft 269 kts 145°
2026-05-09 18:18 40.42111 -73.61790 7192 ft 270 kts 145°
2026-05-09 18:18 40.40724 -73.60122 7522 ft 271 kts 144°
2026-05-09 18:19 40.39329 -73.58448 7852 ft 273 kts 145°
2026-05-09 18:19 40.36509 -73.55067 8506 ft 276 kts 145°
2026-05-09 18:19 40.35092 -73.53369 8843 ft 277 kts 145°
2026-05-09 18:20 40.33669 -73.51663 9188 ft 278 kts 145°
2026-05-09 18:20 40.32244 -73.49952 9537 ft 278 kts 145°
2026-05-09 18:20 40.30815 -73.48237 9877 ft 279 kts 145°
2026-05-09 18:20 40.29371 -73.46512 10210 ft 284 kts 145°
2026-05-09 18:21 40.27857 -73.44720 10517 ft 301 kts 145°
2026-05-09 18:21 40.26260 -73.42833 10844 ft 317 kts 145°
2026-05-09 18:21 40.24587 -73.40849 11173 ft 333 kts 145°
2026-05-09 18:21 40.22791 -73.38859 11500 ft 342 kts 150°
2026-05-09 18:22 40.20825 -73.37001 11831 ft 354 kts 151°
2026-05-09 18:22 40.18810 -73.35105 12169 ft 359 kts 151°
2026-05-09 18:22 40.16771 -73.33186 12508 ft 363 kts 151°
2026-05-09 18:22 40.14691 -73.31301 12848 ft 362 kts 157°
2026-05-09 18:23 40.12405 -73.30025 13155 ft 354 kts 171°
2026-05-09 18:23 40.10016 -73.29564 13500 ft 345 kts 185°
2026-05-09 18:23 40.07649 -73.29898 13842 ft 339 kts 198°
2026-05-09 18:23 40.05451 -73.30960 14158 ft 336 kts 212°
2026-05-09 18:24 40.03546 -73.32637 14468 ft 334 kts 223°
2026-05-09 18:24 40.01779 -73.34626 14785 ft 337 kts 223°
2026-05-09 18:24 40.00003 -73.36619 15102 ft 339 kts 223°
2026-05-09 18:25 39.96386 -73.40653 15750 ft 344 kts 223°
2026-05-09 18:25 39.94561 -73.42685 16073 ft 347 kts 223°
2026-05-09 18:25 39.92717 -73.44745 16390 ft 350 kts 223°
2026-05-09 18:25 39.90865 -73.46811 16726 ft 352 kts 223°
2026-05-09 18:26 39.88998 -73.48886 17066 ft 354 kts 223°
2026-05-09 18:26 39.87112 -73.50978 17413 ft 357 kts 223°
2026-05-09 18:26 39.85224 -73.53073 17754 ft 359 kts 223°
2026-05-09 18:26 39.83313 -73.55198 18100 ft 362 kts 223°
2026-05-09 18:27 39.81392 -73.57338 18434 ft 364 kts 223°
2026-05-09 18:27 39.80114 -73.58762 18636 ft 366 kts 223°
2026-05-09 18:27 39.77526 -73.61644 19048 ft 367 kts 223°
2026-05-09 18:27 39.75581 -73.63806 19363 ft 368 kts 223°
2026-05-09 18:28 39.73632 -73.65972 19678 ft 369 kts 224°
2026-05-09 18:28 39.71681 -73.68141 19988 ft 369 kts 224°
2026-05-09 18:28 39.69729 -73.70305 20312 ft 369 kts 224°
2026-05-09 18:28 39.67774 -73.72471 20636 ft 370 kts 224°
2026-05-09 18:29 39.65840 -73.74616 20961 ft 371 kts 224°
2026-05-09 18:29 39.63870 -73.76801 21291 ft 372 kts 224°
2026-05-09 18:29 39.61897 -73.78987 21629 ft 374 kts 224°
2026-05-09 18:29 39.59915 -73.81181 21963 ft 375 kts 224°
2026-05-09 18:30 39.57933 -73.83371 22309 ft 376 kts 224°
2026-05-09 18:30 39.55935 -73.85574 22654 ft 377 kts 224°
2026-05-09 18:30 39.53937 -73.87770 23008 ft 378 kts 224°
2026-05-09 18:30 39.51922 -73.89981 23368 ft 380 kts 224°
2026-05-09 18:31 39.49907 -73.92191 23704 ft 381 kts 224°
2026-05-09 18:31 39.47876 -73.94422 23990 ft 383 kts 224°
2026-05-09 18:31 39.45841 -73.96658 24295 ft 384 kts 224°
2026-05-09 18:31 39.43800 -73.98899 24600 ft 386 kts 224°
2026-05-09 18:32 39.41746 -74.01155 24925 ft 388 kts 224°
2026-05-09 18:32 39.39683 -74.03418 25238 ft 389 kts 224°
2026-05-09 18:32 39.37614 -74.05682 25555 ft 391 kts 224°
2026-05-09 18:32 39.35532 -74.07958 25849 ft 393 kts 225°
2026-05-09 18:33 39.33441 -74.10245 26161 ft 395 kts 225°
2026-05-09 18:33 39.31343 -74.12534 26497 ft 396 kts 225°
2026-05-09 18:33 39.29230 -74.14835 26833 ft 398 kts 225°
2026-05-09 18:33 39.27113 -74.17137 27167 ft 399 kts 225°
2026-05-09 18:34 39.24991 -74.19446 27503 ft 399 kts 225°
2026-05-09 18:34 39.22864 -74.21758 27846 ft 399 kts 225°
2026-05-09 18:34 39.20745 -74.24059 28189 ft 398 kts 225°
2026-05-09 18:34 39.18626 -74.26360 28548 ft 398 kts 225°
2026-05-09 18:35 39.16507 -74.28658 28859 ft 398 kts 226°
2026-05-09 18:35 39.14393 -74.30948 29228 ft 398 kts 226°
2026-05-09 18:35 39.12274 -74.33248 29586 ft 398 kts 226°
2026-05-09 18:35 39.10153 -74.35543 29956 ft 397 kts 226°
2026-05-09 18:36 39.08039 -74.37824 30278 ft 396 kts 227°
2026-05-09 18:36 39.05952 -74.40068 30598 ft 394 kts 227°
2026-05-09 18:36 39.03854 -74.42325 30911 ft 392 kts 227°
2026-05-09 18:36 39.01769 -74.44567 31236 ft 389 kts 227°
2026-05-09 18:37 38.99702 -74.46792 31563 ft 387 kts 228°
2026-05-09 18:37 38.97642 -74.49010 31859 ft 385 kts 229°
2026-05-09 18:37 38.95589 -74.51227 31946 ft 387 kts 229°
2026-05-09 18:38 38.91471 -74.55811 31976 ft 393 kts 230°
2026-05-09 18:38 38.87441 -74.60574 31969 ft 394 kts 231°
2026-05-09 18:40 38.71127 -74.79398 31943 ft 397 kts 227°
2026-05-09 18:41 38.66791 -74.83818 31952 ft 398 kts 227°
2026-05-09 18:41 38.62466 -74.88228 31956 ft 398 kts 227°
2026-05-09 18:42 38.58169 -74.92678 31933 ft 397 kts 228°
2026-05-09 18:42 38.53884 -74.97140 31943 ft 397 kts 228°
2026-05-09 18:43 38.49658 -75.01669 31953 ft 396 kts 230°
2026-05-09 18:43 38.45507 -75.06282 31963 ft 397 kts 228°
2026-05-09 18:44 38.41864 -75.09896 31965 ft 400 kts 225°
2026-05-09 18:44 38.37347 -75.14073 31942 ft 401 kts 225°
2026-05-09 18:45 38.32835 -75.18254 31957 ft 401 kts 225°
2026-05-09 18:45 38.28364 -75.22479 31960 ft 400 kts 226°
2026-05-09 18:46 38.23905 -75.26709 31968 ft 400 kts 226°
2026-05-09 18:46 38.19441 -75.30932 31963 ft 400 kts 226°
2026-05-09 18:47 38.14980 -75.35149 31943 ft 400 kts 226°
2026-05-09 18:47 38.10512 -75.39359 31952 ft 399 kts 226°
2026-05-09 18:48 38.06044 -75.43546 31964 ft 399 kts 226°
2026-05-09 18:48 38.01526 -75.47662 31962 ft 401 kts 224°
2026-05-09 18:49 37.96915 -75.51653 31926 ft 401 kts 224°
2026-05-09 18:49 37.92295 -75.55612 31953 ft 400 kts 224°
2026-05-09 18:50 37.87693 -75.59586 31959 ft 400 kts 224°
2026-05-09 18:50 37.83091 -75.63554 31963 ft 401 kts 223°
2026-05-09 18:51 37.78310 -75.67255 31948 ft 405 kts 220°
2026-05-09 18:51 37.73427 -75.70810 31926 ft 404 kts 220°
2026-05-09 18:52 37.68609 -75.74359 31936 ft 403 kts 220°
2026-05-09 18:52 37.63791 -75.77969 31943 ft 402 kts 221°
2026-05-09 18:53 37.58981 -75.81587 31949 ft 403 kts 221°
2026-05-09 18:53 37.54181 -75.85217 31944 ft 399 kts 224°
2026-05-09 18:54 37.50047 -75.89652 31945 ft 388 kts 231°
2026-05-09 18:54 37.46084 -75.94277 31936 ft 388 kts 231°
2026-05-09 18:55 37.42118 -75.98890 31930 ft 388 kts 231°
2026-05-09 18:55 37.38149 -76.03503 31927 ft 388 kts 231°
2026-05-09 18:56 37.34177 -76.08118 31918 ft 389 kts 231°
2026-05-09 18:56 37.30199 -76.12723 31931 ft 389 kts 231°
2026-05-09 18:57 37.26223 -76.17316 31943 ft 389 kts 231°
2026-05-09 18:57 37.22239 -76.21914 31936 ft 389 kts 231°
2026-05-09 18:58 37.18250 -76.26513 31930 ft 390 kts 231°
2026-05-09 18:58 37.14256 -76.31105 31887 ft 390 kts 231°
2026-05-09 18:59 37.10259 -76.35692 31916 ft 389 kts 231°
2026-05-09 18:59 37.06281 -76.40264 31926 ft 388 kts 231°
2026-05-09 19:00 37.02331 -76.44805 31926 ft 388 kts 231°
2026-05-09 19:00 36.96362 -76.51635 31967 ft 388 kts 231°
2026-05-09 19:01 36.92372 -76.56178 31904 ft 388 kts 231°
2026-05-09 19:01 36.88382 -76.60725 31919 ft 388 kts 231°
2026-05-09 19:02 36.84385 -76.65271 31933 ft 389 kts 231°
2026-05-09 19:02 36.80387 -76.69816 31941 ft 389 kts 231°
2026-05-09 19:03 36.76386 -76.74354 31944 ft 389 kts 231°
2026-05-09 19:03 36.72382 -76.78892 31907 ft 388 kts 231°
2026-05-09 19:04 36.68391 -76.83417 31923 ft 388 kts 231°
2026-05-09 19:04 36.64398 -76.87937 31930 ft 388 kts 231°
2026-05-09 19:05 36.60395 -76.92452 31927 ft 389 kts 231°
2026-05-09 19:05 36.56382 -76.96965 31929 ft 389 kts 231°
2026-05-09 19:06 36.52363 -77.01482 31934 ft 389 kts 231°
2026-05-09 19:06 36.48360 -77.05988 31934 ft 389 kts 231°
2026-05-09 19:07 36.44343 -77.10494 31936 ft 388 kts 231°
2026-05-09 19:07 36.40359 -77.14957 31935 ft 388 kts 231°
2026-05-09 19:08 36.36347 -77.19437 31931 ft 388 kts 231°
2026-05-09 19:08 36.32338 -77.23915 31940 ft 388 kts 231°
2026-05-09 19:09 36.28207 -77.28268 31899 ft 392 kts 228°
2026-05-09 19:09 36.23884 -77.32410 31904 ft 393 kts 227°
2026-05-09 19:10 36.19541 -77.36529 31919 ft 393 kts 227°
2026-05-09 19:10 36.15229 -77.40684 31920 ft 393 kts 228°
2026-05-09 19:11 36.10929 -77.44864 31930 ft 393 kts 228°
2026-05-09 19:11 36.06641 -77.49035 31929 ft 391 kts 228°
2026-05-09 19:12 36.02359 -77.53181 31945 ft 390 kts 228°
2026-05-09 19:12 35.98087 -77.57312 31949 ft 390 kts 228°
2026-05-09 19:13 35.93844 -77.61403 31953 ft 390 kts 228°
2026-05-09 19:13 35.89566 -77.65530 31939 ft 391 kts 228°
2026-05-09 19:14 35.85281 -77.69658 31921 ft 390 kts 228°
2026-05-09 19:14 35.81002 -77.73764 31938 ft 389 kts 228°
2026-05-09 19:15 35.76730 -77.77852 31943 ft 389 kts 228°
2026-05-09 19:15 35.72464 -77.81942 31940 ft 388 kts 228°
2026-05-09 19:16 35.68196 -77.86027 31943 ft 388 kts 228°
2026-05-09 19:16 35.63927 -77.90102 31935 ft 389 kts 228°
2026-05-09 19:17 35.59663 -77.94176 31940 ft 388 kts 229°
2026-05-09 19:17 35.55396 -77.98247 31953 ft 388 kts 229°
2026-05-09 19:18 35.51127 -78.02306 31953 ft 388 kts 228°
2026-05-09 19:18 35.46854 -78.06358 31953 ft 388 kts 228°
2026-05-09 19:19 35.42580 -78.10411 31950 ft 388 kts 228°
2026-05-09 19:19 35.38303 -78.14463 31944 ft 388 kts 228°
2026-05-09 19:20 35.34059 -78.18487 31944 ft 389 kts 228°
2026-05-09 19:20 35.29775 -78.22535 31941 ft 389 kts 228°
2026-05-09 19:21 35.25491 -78.26579 31935 ft 389 kts 228°
2026-05-09 19:21 35.21203 -78.30618 31939 ft 389 kts 228°
2026-05-09 19:22 35.16907 -78.34663 31900 ft 390 kts 228°
2026-05-09 19:22 35.12609 -78.38702 31922 ft 390 kts 228°
2026-05-09 19:23 35.08306 -78.42739 31928 ft 390 kts 228°
2026-05-09 19:23 35.04000 -78.46776 31938 ft 390 kts 228°
2026-05-09 19:24 34.99691 -78.50814 31939 ft 391 kts 228°
2026-05-09 19:24 34.95376 -78.54846 31880 ft 390 kts 228°
2026-05-09 19:25 34.91077 -78.58854 31938 ft 388 kts 228°
2026-05-09 19:25 34.86788 -78.62849 31951 ft 388 kts 228°
2026-05-09 19:26 34.82529 -78.66814 31950 ft 387 kts 228°
2026-05-09 19:26 34.78245 -78.70798 31968 ft 388 kts 229°
2026-05-09 19:27 34.73924 -78.74815 31949 ft 389 kts 229°
2026-05-09 19:27 34.69620 -78.78811 31925 ft 390 kts 227°
2026-05-09 19:28 34.65326 -78.82784 31938 ft 390 kts 227°
2026-05-09 19:28 34.61009 -78.86778 31943 ft 390 kts 227°
2026-05-09 19:29 34.57393 -78.90121 31949 ft 390 kts 227°
2026-05-09 19:29 34.53078 -78.94097 31950 ft 390 kts 227°
2026-05-09 19:30 34.48760 -78.98074 31908 ft 390 kts 226°
2026-05-09 19:30 34.44412 -79.02063 31914 ft 393 kts 225°
2026-05-09 19:31 34.39974 -79.06014 31921 ft 397 kts 224°
2026-05-09 19:31 34.35475 -79.09828 31947 ft 397 kts 224°
2026-05-09 19:32 34.30914 -79.13685 31951 ft 397 kts 224°
2026-05-09 19:32 34.26395 -79.17529 31959 ft 396 kts 225°
2026-05-09 19:33 34.22042 -79.21584 31915 ft 395 kts 226°
2026-05-09 19:33 34.17812 -79.25869 31915 ft 399 kts 227°
2026-05-09 19:34 34.13562 -79.30160 31920 ft 402 kts 227°
2026-05-09 19:34 34.09228 -79.34449 31925 ft 404 kts 226°
2026-05-09 19:35 34.04863 -79.38715 31931 ft 405 kts 226°
2026-05-09 19:35 34.00484 -79.42999 31912 ft 405 kts 226°
2026-05-09 19:36 33.96106 -79.47282 31923 ft 406 kts 226°
2026-05-09 19:36 33.91714 -79.51570 31931 ft 407 kts 226°
2026-05-09 19:37 33.87310 -79.55863 31937 ft 407 kts 226°
2026-05-09 19:37 33.82607 -79.59794 31941 ft 412 kts 222°
2026-05-09 19:38 33.77843 -79.63655 31913 ft 413 kts 222°
2026-05-09 19:38 33.73068 -79.67505 31924 ft 414 kts 222°
2026-05-09 19:39 33.68289 -79.71355 31949 ft 414 kts 222°
2026-05-09 19:39 33.63498 -79.75215 31955 ft 414 kts 222°
2026-05-09 19:40 33.58709 -79.79066 31953 ft 414 kts 222°
2026-05-09 19:40 33.53917 -79.82918 31959 ft 415 kts 222°
2026-05-09 19:41 33.49127 -79.86768 31929 ft 415 kts 222°
2026-05-09 19:41 33.44323 -79.90618 31932 ft 416 kts 222°
2026-05-09 19:42 33.39515 -79.94464 31943 ft 416 kts 222°
2026-05-09 19:42 33.34704 -79.98314 31952 ft 416 kts 222°
2026-05-09 19:43 33.29908 -80.02144 31962 ft 416 kts 222°
2026-05-09 19:43 33.25086 -80.05987 31943 ft 417 kts 222°
2026-05-09 19:44 33.20264 -80.09829 31953 ft 417 kts 221°
2026-05-09 19:44 33.15431 -80.13661 31956 ft 418 kts 221°
2026-05-09 19:45 33.10580 -80.17504 31958 ft 418 kts 222°
2026-05-09 19:45 33.05771 -80.21321 31958 ft 418 kts 222°
2026-05-09 19:46 33.00903 -80.25178 31963 ft 418 kts 222°
2026-05-09 19:46 32.96092 -80.28979 31971 ft 417 kts 222°
2026-05-09 19:47 32.91250 -80.32801 31963 ft 417 kts 222°
2026-05-09 19:47 32.86414 -80.36618 31959 ft 417 kts 222°
2026-05-09 19:48 32.81576 -80.40436 31959 ft 417 kts 222°
2026-05-09 19:48 32.76731 -80.44245 31919 ft 418 kts 221°
2026-05-09 19:49 32.71874 -80.48054 31932 ft 418 kts 221°
2026-05-09 19:49 32.67029 -80.51867 31942 ft 419 kts 221°
2026-05-09 19:50 32.62161 -80.55681 31953 ft 419 kts 221°
2026-05-09 19:50 32.57298 -80.59480 31960 ft 419 kts 221°
2026-05-09 19:51 32.52427 -80.63280 31957 ft 419 kts 221°
2026-05-09 19:51 32.47558 -80.67077 31972 ft 419 kts 221°
2026-05-09 19:52 32.42692 -80.70877 31979 ft 419 kts 221°
2026-05-09 19:52 32.37849 -80.74654 31994 ft 419 kts 221°
2026-05-09 19:53 32.32966 -80.78447 31998 ft 419 kts 221°
2026-05-09 19:53 32.28086 -80.82234 31983 ft 419 kts 221°
2026-05-09 19:54 32.23204 -80.86024 31995 ft 419 kts 220°
2026-05-09 19:54 32.18325 -80.89808 31998 ft 419 kts 220°
2026-05-09 19:55 32.12941 -80.92698 31850 ft 437 kts 204°
2026-05-09 19:55 32.09997 -80.93620 30946 ft 441 kts 203°
2026-05-09 19:56 32.03985 -80.95474 28781 ft 451 kts 202°
2026-05-09 19:56 32.00945 -80.96414 27740 ft 453 kts 202°
2026-05-09 19:56 31.97879 -80.97366 26575 ft 457 kts 201°
2026-05-09 19:56 31.94820 -80.98317 25898 ft 451 kts 201°
2026-05-09 19:57 31.91801 -80.99252 25171 ft 447 kts 201°
2026-05-09 19:57 31.88799 -81.00180 24435 ft 443 kts 200°
2026-05-09 19:57 31.85825 -81.01103 23731 ft 441 kts 200°
2026-05-09 19:57 31.82876 -81.02032 23262 ft 439 kts 200°
2026-05-09 19:58 31.79943 -81.02971 22764 ft 437 kts 200°
2026-05-09 19:58 31.77028 -81.03906 22285 ft 434 kts 200°
2026-05-09 19:58 31.74159 -81.04824 21809 ft 431 kts 200°
2026-05-09 19:58 31.71230 -81.05759 21330 ft 428 kts 200°
2026-05-09 19:59 31.68371 -81.06669 20860 ft 424 kts 200°
2026-05-09 19:59 31.65536 -81.07568 20394 ft 420 kts 200°
2026-05-09 19:59 31.62759 -81.08449 19938 ft 417 kts 200°
2026-05-09 19:59 31.59969 -81.09331 19473 ft 413 kts 200°
2026-05-09 20:00 31.57206 -81.10204 19019 ft 410 kts 200°
2026-05-09 20:00 31.54464 -81.11071 18571 ft 406 kts 199°
2026-05-09 20:00 31.51752 -81.11927 18095 ft 402 kts 199°
2026-05-09 20:00 31.49064 -81.12775 17622 ft 399 kts 199°
2026-05-09 20:01 31.46402 -81.13615 17189 ft 396 kts 200°
2026-05-09 20:01 31.43750 -81.14450 16754 ft 393 kts 200°
2026-05-09 20:01 31.41112 -81.15281 16322 ft 390 kts 200°
2026-05-09 20:01 31.38500 -81.16105 15890 ft 387 kts 199°
2026-05-09 20:02 31.35914 -81.16922 15465 ft 384 kts 199°
2026-05-09 20:02 31.33343 -81.17733 15041 ft 381 kts 199°
2026-05-09 20:02 31.30792 -81.18535 14622 ft 378 kts 199°
2026-05-09 20:03 31.25747 -81.20128 13779 ft 372 kts 199°
2026-05-09 20:03 31.23258 -81.20915 13347 ft 370 kts 199°
2026-05-09 20:03 31.20755 -81.21629 12952 ft 370 kts 196°
2026-05-09 20:03 31.18226 -81.22208 12544 ft 370 kts 194°
2026-05-09 20:04 31.15691 -81.22707 12120 ft 369 kts 193°
2026-05-09 20:04 31.13158 -81.23176 11710 ft 368 kts 193°